Theta_e
341 343 344 346 346 346 346 346 347 347 346 349 352 353 353 352 350 348 347 346 345 346 347 345 346 346 346 348 349 345 345 346 344 344 346 346 349 351 351 350 350 351
338 338 340 343 344 343 342 342 342 342 341 344 349 352 354 355 354 352 351 347 343 343 345 344 344 344 344 345 346 344 344 346 346 344 345 347 350 352 352 352 351 350
337 336 337 340 341 341 340 339 339 340 340 342 345 349 352 355 354 354 353 349 343 342 343 344 343 343 343 343 343 343 343 345 347 344 344 346 349 352 352 353 354 352
335 335 336 338 339 340 340 340 341 341 341 343 347 350 351 353 353 353 353 350 345 343 342 343 343 342 342 342 342 343 342 344 345 345 346 345 346 348 351 353 354 354
333 334 334 336 338 339 340 340 340 342 342 343 347 351 352 352 351 351 352 349 346 344 341 341 343 342 341 341 342 343 343 342 343 344 345 345 344 345 347 351 353 354
334 334 333 334 335 337 339 340 338 339 340 340 344 349 351 352 351 350 348 347 344 343 341 340 341 341 340 340 340 342 342 343 343 343 343 343 344 343 344 348 352 352
333 334 334 334 334 334 336 339 339 338 337 337 339 343 347 350 353 352 348 345 343 342 341 339 338 338 339 338 339 340 340 341 343 343 342 341 341 341 341 344 349 351
337 335 335 334 334 335 335 337 340 340 339 338 338 339 340 344 350 352 350 345 342 340 339 338 337 336 337 337 337 339 339 339 340 340 340 340 340 340 338 340 345 348
349 346 343 339 336 337 338 339 340 341 342 342 341 341 341 340 343 347 348 345 342 339 339 338 336 335 336 336 336 337 338 338 338 339 338 338 338 338 338 340 341 343
357 355 352 347 343 342 344 344 343 342 342 343 345 346 346 344 342 343 345 345 342 339 339 339 337 336 337 337 335 334 335 336 337 337 337 337 337 337 338 340 340 340
357 357 356 355 352 349 349 350 349 347 346 345 346 347 348 347 346 345 346 346 344 342 340 339 339 339 339 338 336 335 334 334 335 335 335 335 335 336 337 338 339 339
357 356 356 357 355 351 349 350 349 349 349 348 347 347 347 348 348 346 346 346 345 344 343 341 342 343 342 339 338 337 335 333 333 333 334 334 333 333 334 335 335 336
356 355 355 355 354 352 350 349 348 347 348 348 348 347 345 346 347 347 346 345 344 343 343 342 343 345 345 343 340 339 337 335 333 332 333 333 333 332 332 332 333 334
354 354 355 354 353 353 353 351 348 346 346 347 349 349 347 343 344 345 345 345 345 343 342 341 340 341 341 340 340 340 339 337 335 332 331 332 332 332 331 332 332 333
353 353 354 355 353 351 352 352 349 346 345 346 347 349 349 346 342 343 345 345 345 344 343 342 340 339 337 335 335 336 337 337 335 335 335 334 334 332 331 331 331 332
352 353 354 355 354 351 351 352 350 347 345 346 346 347 349 349 346 343 343 344 345 344 343 343 342 341 340 337 333 331 331 332 333 335 337 338 339 337 334 331 331 331
352 353 354 354 355 354 354 352 350 348 346 344 345 345 346 348 348 346 344 343 344 344 344 344 343 343 343 342 340 336 331 329 328 329 332 335 339 340 337 334 332 332
351 352 353 353 353 353 353 352 351 349 347 345 345 344 344 346 347 347 346 344 344 343 344 345 345 344 344 344 344 344 341 337 333 331 330 331 332 333 334 333 333 334
352 352 352 352 353 352 352 353 352 350 349 348 347 346 345 346 347 348 348 346 344 344 344 346 347 347 347 346 345 346 347 346 343 340 339 337 335 333 331 330 330 332
352 352 352 352 352 351 351 352 353 352 351 350 349 348 346 346 347 349 349 347 346 345 345 346 347 348 349 349 349 348 348 349 348 347 346 344 342 340 338 336 334 333
350 350 351 351 351 351 351 350 352 353 353 352 351 349 348 347 348 349 349 348 348 348 347 346 346 346 347 348 350 351 351 350 349 348 348 347 346 345 344 343 341 339
349 349 348 349 350 350 350 351 352 353 353 353 352 352 350 350 349 350 350 350 350 349 349 349 348 347 346 346 348 351 352 353 352 350 349 348 348 348 347 347 346 344
344 348 348 348 348 349 349 350 351 352 352 353 353 352 353 352 352 352 353 353 353 353 352 351 351 351 351 350 349 349 349 350 352 352 351 350 348 348 348 348 348 347
339 340 340 341 342 344 346 348 349 349 350 351 352 353 353 353 353 353 352 352 353 353 354 354 354 354 354 354 354 353 352 351 351 351 351 351 350 349 349 349 348 348
332 331 329 330 332 333 335 339 344 347 348 349 350 351 353 353 354 353 352 351 351 351 352 353 353 354 354 354 355 355 355 355 355 354 353 352 351 351 351 350 350 349
323 325 326 325 325 326 329 331 334 340 344 347 349 350 352 353 354 353 353 352 352 351 351 351 352 352 351 352 353 354 354 355 355 355 354 353 353 352 352 352 352 351
Wind_Speed
21 20 19 18 20 20 19 19 19 18 16 16 15 14 12 8 9 11 11 11 11 11 11 10 9 9 8 8 8 8 8 8 9 9 8 8 9 8 8 8 7 7
23 21 19 18 18 17 16 17 18 16 16 16 15 15 15 11 10 11 10 11 12 11 12 11 10 10 9 8 9 8 8 9 8 9 8 8 8 8 8 6 5 6
23 22 21 20 18 17 16 16 16 16 15 15 14 14 16 15 14 14 13 13 13 12 12 12 11 11 10 10 10 9 9 9 9 10 8 8 9 8 8 7 5 4
22 22 21 20 19 17 16 16 16 16 16 16 14 13 14 16 18 18 17 14 13 13 13 13 12 12 12 11 11 11 10 10 10 10 9 8 8 9 9 8 6 5
22 21 21 20 20 19 18 17 17 17 17 17 17 15 15 16 17 18 19 16 14 14 14 13 13 13 12 12 12 12 12 11 10 9 8 8 8 8 9 9 8 8
22 22 21 20 20 19 19 19 18 17 17 17 17 18 16 15 15 16 17 17 15 15 14 14 14 14 13 13 13 13 13 12 11 10 9 9 9 8 8 9 8 8
22 22 22 21 20 20 20 19 19 18 18 17 17 18 18 17 17 17 17 17 17 16 15 14 14 14 14 14 14 14 14 13 12 12 12 11 11 10 10 10 9 9
21 21 22 22 21 21 21 20 19 19 19 18 18 18 18 18 19 19 19 18 18 18 17 16 15 15 15 15 15 14 14 14 13 13 14 13 12 12 12 11 11 11
20 20 21 22 22 22 22 21 20 20 20 19 19 19 19 19 19 21 21 20 18 18 18 18 17 16 16 15 15 15 15 14 14 14 13 12 12 13 12 12 12 12
22 21 20 21 23 23 23 23 22 21 21 21 20 20 20 20 20 20 21 21 20 20 19 19 19 17 17 16 15 15 16 15 15 15 15 14 13 13 13 13 14 13
25 24 22 22 23 24 23 23 23 22 21 22 22 22 22 22 22 21 21 21 21 21 20 19 19 19 18 17 17 16 16 15 15 16 16 16 15 15 15 15 16 15
25 26 25 24 24 25 25 25 26 25 23 23 22 23 23 23 23 22 22 22 22 21 22 21 20 21 20 19 19 18 17 16 16 16 17 17 16 16 16 16 16 16
26 27 28 26 25 26 27 28 28 27 26 24 23 23 24 24 24 24 23 22 22 21 21 21 21 23 23 22 22 21 21 19 18 17 18 18 18 18 17 17 17 17
27 28 29 28 28 28 29 29 28 27 27 26 24 24 25 22 24 26 25 23 23 22 21 21 21 23 24 24 24 23 23 23 21 20 20 19 20 20 20 20 19 19
26 27 28 29 29 28 28 28 27 25 26 26 24 25 27 24 22 25 27 26 25 23 22 21 21 21 22 23 24 25 25 25 24 23 23 22 22 21 21 21 21 21
23 24 26 27 27 27 27 28 26 24 25 27 26 25 29 29 24 23 26 28 28 26 25 24 23 21 21 21 22 23 24 25 25 25 25 25 25 25 24 23 22 22
20 22 23 23 23 24 26 25 25 24 25 27 28 26 28 30 29 26 25 26 28 29 27 26 25 23 21 21 21 21 23 25 26 26 26 27 28 28 28 27 26 25
16 18 20 20 19 19 20 20 21 24 25 27 29 28 27 29 29 29 27 26 26 28 27 26 26 25 23 22 21 20 21 22 24 25 26 27 28 30 30 30 29 28
11 12 14 17 17 16 15 14 17 21 25 28 30 29 28 28 27 25 27 28 27 27 26 25 24 24 24 24 24 22 21 21 22 24 25 26 26 28 29 31 31 30
11 11 11 13 16 17 15 14 14 18 23 28 30 29 29 29 28 25 24 26 27 27 27 25 24 23 23 23 23 24 24 24 24 24 25 26 27 27 28 29 30 31
11 11 10 12 15 16 17 17 17 18 21 25 28 29 29 30 30 28 27 27 27 28 29 30 30 29 27 26 24 22 23 25 28 28 28 28 28 29 29 30 30 31
9 10 11 13 15 16 16 18 20 20 21 23 25 26 28 30 30 30 30 30 30 31 31 32 33 34 34 33 31 27 23 24 27 30 31 32 31 31 31 31 31 32
6 12 12 12 13 15 15 17 20 21 21 22 24 25 26 28 29 30 31 31 31 32 33 34 34 34 35 35 35 34 32 31 30 29 30 33 34 35 34 34 33 33
1 7 8 6 6 8 10 13 17 20 20 19 20 22 24 26 27 29 29 30 31 31 32 34 34 34 34 34 33 33 34 35 35 35 34 34 35 36 36 37 37 36
5 1 1 2 3 3 4 6 11 15 17 18 18 19 20 22 24 26 27 28 29 29 30 32 33 33 33 32 32 31 31 32 33 35 36 36 36 36 37 37 38 38
7 5 5 5 6 7 6 5 5 7 11 14 16 17 18 18 19 21 23 25 26 26 27 29 30 31 30 30 30 30 31 33 33 34 34 33 33 33 35 36 36 38
Wind_Direction
199 196 196 194 194 198 198 197 199 200 197 193 191 195 197 194 197 192 186 196 197 189 189 192 196 194 192 193 187 182 185 176 167 165 163 163 167 163 153 157 170 180
203 203 200 200 200 202 201 197 199 202 198 196 195 193 194 195 200 208 212 208 202 197 193 194 198 196 193 194 190 190 191 184 177 176 171 167 172 166 155 158 165 169
206 207 205 206 205 204 203 198 199 205 203 198 198 197 194 192 196 211 223 214 204 204 201 198 199 198 199 198 195 195 193 189 189 189 184 177 179 182 172 168 174 173
209 210 208 210 211 209 208 205 203 207 207 201 199 202 203 200 198 205 218 219 210 209 208 203 204 203 203 202 200 200 198 196 197 198 196 189 187 195 194 182 185 201
210 213 212 211 213 213 213 214 211 210 211 208 203 205 212 215 210 209 216 221 216 214 213 208 207 208 208 207 205 204 204 203 205 206 206 203 196 200 205 196 189 204
209 214 216 214 214 216 216 218 219 218 217 216 211 211 212 214 220 221 219 221 220 219 219 215 213 213 212 212 212 210 208 206 208 211 212 213 212 209 208 201 193 211
212 213 216 216 216 218 219 219 221 223 223 222 219 220 217 211 218 229 227 222 222 223 224 222 220 220 219 217 216 217 215 213 212 216 217 217 219 220 216 210 208 221
222 219 217 218 218 218 221 221 221 223 225 224 221 224 227 219 217 226 232 228 223 223 227 229 227 224 225 224 222 221 221 221 222 225 226 224 223 225 226 224 224 226
225 228 222 220 220 218 219 222 224 225 225 225 223 224 229 231 225 226 233 237 233 226 225 229 232 229 228 231 231 228 227 226 229 233 236 237 235 233 231 232 235 237
217 226 226 222 221 220 219 222 228 229 228 226 224 224 228 234 236 233 234 238 239 236 231 229 234 236 234 235 237 237 234 230 230 234 239 242 242 240 237 236 238 243
215 220 222 219 217 216 217 220 224 228 232 231 226 225 228 234 239 240 239 241 241 241 240 236 237 239 241 241 242 242 239 235 232 235 240 244 244 243 242 241 243 245
223 221 219 217 217 215 214 216 216 217 225 235 235 229 226 231 239 243 243 245 248 246 244 242 240 241 243 246 248 248 246 243 239 238 242 246 249 249 247 247 247 248
229 227 224 222 223 220 216 217 217 212 212 223 236 238 232 228 233 242 247 250 253 254 251 248 245 244 245 246 248 249 251 252 250 246 245 246 249 251 253 253 253 251
233 232 229 227 227 225 222 222 223 219 212 212 222 235 240 235 229 233 243 250 253 255 256 255 252 249 249 249 247 247 249 253 255 255 253 252 252 252 252 253 254 254
237 234 231 230 229 227 228 228 228 229 223 215 215 225 234 240 235 230 235 243 248 251 253 255 257 257 256 255 252 249 249 252 254 256 258 260 261 261 259 257 256 256
234 232 231 233 234 231 230 229 229 235 232 221 219 222 225 230 234 233 234 239 243 248 251 251 255 260 263 263 259 255 254 254 254 254 255 257 261 264 266 267 266 265
222 225 229 234 238 237 235 234 235 236 233 224 222 224 225 224 227 230 235 240 243 247 250 250 254 260 265 268 267 263 259 257 256 256 254 254 256 259 263 266 267 268
216 220 226 232 238 239 241 248 246 238 232 227 223 223 223 222 223 227 232 237 241 246 251 252 255 260 264 268 271 270 267 263 260 260 259 257 256 257 259 262 264 265
212 218 225 231 234 235 238 249 251 241 235 231 225 223 221 219 221 226 230 231 235 242 250 254 256 259 263 266 271 274 275 272 267 266 266 265 264 263 262 263 263 264
209 212 221 231 234 234 236 244 252 247 239 232 228 227 225 222 224 227 227 227 229 234 241 247 250 255 259 263 268 273 276 275 272 270 270 270 270 270 269 268 267 267
213 215 224 234 237 237 237 238 244 248 242 234 230 229 228 227 229 231 230 230 232 234 236 239 242 246 251 257 263 270 275 274 271 269 270 271 273 274 274 274 273 271
224 224 232 239 240 240 238 233 236 245 246 240 235 232 229 228 230 232 232 232 235 236 238 240 241 242 245 250 254 259 264 268 268 268 269 270 272 274 275 276 276 274
238 230 236 247 248 248 249 243 241 248 250 245 241 237 234 231 231 232 233 233 234 236 237 239 241 243 244 247 250 252 254 256 259 262 266 268 269 272 274 274 274 273
165 229 240 259 261 259 264 259 253 256 258 254 249 244 240 237 237 237 238 238 239 239 240 242 243 244 245 247 249 251 253 255 257 257 258 260 263 265 269 271 272 272
95 90 1 353 342 332 309 279 265 263 263 261 259 256 252 248 245 244 243 243 243 243 244 246 248 249 249 250 252 253 254 259 263 265 264 264 264 263 263 267 270 271
79 81 69 45 21 8 357 340 310 280 270 267 263 262 261 259 257 254 251 248 247 247 247 248 250 251 252 253 255 256 257 261 268 274 277 279 279 273 264 263 267 272